[[[{"header":{"parameterUnit":"kt","parameterCategory":2,"dx":1,"dy":1,"la1":30.253999710083008,"la2":30.299108505249023,"lo1":-89.0895004272461,"lo2":-89.04439544677734,"nx":28,"ny":28,"refTime":"2022-10-05T21:00:00:Z","depth":0,"parameterNumber":1,"parameterNumberName":"U-component_of_WINDS"},"data":[3.0257,3.0241,3.02,3.0161,3.0118,3.0083,3.0056,3.0018,2.9975,2.9926,2.9889,2.9843,2.978,2.9723,2.9678,2.9657,2.9639,2.9665,2.9635,2.9566,2.9553,2.9541,2.9543,2.9662,2.9663,2.9711,2.9711,2.9712,3.021,3.0168,3.0137,3.0078,3.0049,3.0001,2.9948,2.9926,2.9895,2.9842,2.9804,2.9755,2.971,2.9637,2.9584,2.9571,2.9543,2.956,2.9558,2.9548,2.9474,2.9476,2.9583,2.9583,2.9583,2.9583,2.9583,2.9583,3.0114,3.0106,3.0046,3.001,2.9969,2.9929,2.9912,2.9857,2.9823,2.9767,2.9722,2.9684,2.962,2.9534,2.9494,2.946,2.9433,2.9436,2.9436,2.9437,2.9444,2.9376,2.9449,2.9449,2.9448,2.9448,2.9448,0,3.0029,2.9995,2.9962,2.9916,2.9887,2.9847,2.9802,2.979,2.97,2.9675,2.9634,2.9602,2.9539,2.9492,2.9433,2.9388,2.9329,2.932,2.9321,2.9341,2.9367,2.935,2.9228,2.9317,2.9315,2.9314,2.9314,2.9313,2.9925,2.9922,2.9839,2.982,2.9785,2.9757,2.973,2.9651,2.9626,2.9556,2.9551,2.9505,2.9464,2.9402,2.9331,2.9281,2.9251,2.929,2.9243,2.9264,2.9247,2.9248,2.9245,2.9299,2.9301,2.9302,2.9304,0,2.987,2.9802,2.9782,2.9699,2.9678,2.9677,2.9603,2.959,2.9536,2.951,2.9499,2.9413,2.9372,2.9295,2.9232,2.9192,2.9182,2.9156,2.9203,2.9193,2.9217,2.9215,2.9314,2.9321,2.92,2.9202,2.9203,0,2.9753,2.9751,2.9648,2.964,2.9634,2.9554,2.9549,2.9502,2.9447,2.9426,2.935,2.9331,2.9235,2.9204,2.9145,2.9123,2.9112,2.9079,2.9063,2.9084,2.9088,2.9065,2.9057,2.903,2.903,2.9029,2.9029,0,2.9672,2.9614,2.9601,2.9576,2.9486,2.9481,2.9442,2.938,2.9354,2.9307,2.9288,2.9239,2.9211,2.9173,2.9098,2.9069,2.9071,2.9015,2.9036,2.9038,2.9038,2.9038,2.9149,2.9028,2.9028,2.9028,2.9028,0,2.9565,2.9523,2.9516,2.9438,2.9425,2.9416,2.9363,2.9338,2.9277,2.9241,2.9203,2.9141,2.9118,2.9069,2.9034,2.9017,2.8993,2.896,2.896,2.895,2.8895,2.8965,2.9081,2.9088,2.8945,2.8944,2.8944,0,2.9489,2.9463,2.9394,2.9388,2.9365,2.928,2.9268,2.9217,2.9167,2.9138,2.9081,2.9047,2.8994,2.8972,2.8966,2.8904,2.8926,2.89,2.8851,2.885,2.8868,2.8975,2.901,2.9065,2.8934,2.8935,2.8936,0,2.9421,2.9312,2.9316,2.9283,2.9205,2.9185,2.9172,2.9122,2.9106,2.9058,2.9041,2.8993,2.895,2.8915,2.8859,2.8856,2.8909,2.8809,2.8806,2.8827,2.8923,2.8957,2.8966,2.8871,2.8872,2.8873,2.8928,0,2.927,2.9248,2.9256,2.9189,2.9162,2.9154,2.9074,2.9055,2.9005,2.8952,2.8928,2.8864,2.881,2.8801,2.8751,2.8772,2.8755,2.8709,2.8651,2.8724,2.8739,2.8746,2.8635,2.8633,2.8631,2.863,0,0,2.9212,2.9179,2.9104,2.9089,2.9061,2.8973,2.8971,2.8933,2.8858,2.8839,2.8807,2.873,2.8679,2.8657,2.8673,2.8652,2.8647,2.8625,2.8691,2.8698,2.8705,2.8723,2.8731,2.8626,2.8626,2.8625,2.8624,0,2.914,2.9096,2.9097,2.9055,2.899,2.8934,2.8935,2.8853,2.8819,2.8796,2.872,2.8696,2.8636,2.8591,2.856,2.8627,2.8568,2.8617,2.8679,2.8676,2.8685,2.8694,2.8714,2.8723,2.862,2.862,2.862,0,2.9056,2.8999,2.8991,2.8925,2.8881,2.8859,2.8781,2.8762,2.8743,2.8643,2.8622,2.8575,2.8508,2.8499,2.8492,2.8462,2.8501,2.8475,2.8484,2.848,2.8472,2.8484,2.8495,2.8356,2.8355,2.8355,0,0,2.9004,2.8984,2.8895,2.8904,2.8882,2.8798,2.8778,2.8726,2.867,2.8648,2.8586,2.8531,2.8495,2.8473,2.8435,2.8438,2.8415,2.8446,2.8458,2.8469,2.8471,2.8466,2.8478,2.8353,2.8353,2.8353,0,0,2.8978,2.8877,2.8836,2.8837,2.8788,2.8698,2.8705,2.8652,2.861,2.8602,2.8509,2.849,2.8481,2.8437,2.8418,2.8412,2.8357,2.836,2.8441,2.8455,2.8467,2.8476,2.8325,0,0,0,0,0,2.8863,2.8889,2.8854,2.8842,2.8757,2.8719,2.8707,2.8632,2.8596,2.8603,2.8542,2.8482,2.8407,2.8388,2.8376,2.8397,2.8325,2.833,2.8334,2.8438,2.8455,2.8468,0,0,0,0,0,0,2.8857,2.8843,2.8853,2.8767,2.8747,2.8717,2.8638,2.8618,2.8593,2.8582,2.8496,2.8479,2.8413,2.8389,2.8379,2.8401,2.8328,2.8327,2.8331,2.8335,2.8444,2.8457,2.8468,0,0,0,0,0,2.8853,2.8841,2.8725,2.8765,2.8748,2.8656,2.8636,2.8619,2.8598,2.8504,2.8486,2.8544,2.8416,2.8402,2.8383,2.8407,2.8334,2.8331,2.8329,2.8333,2.8336,2.845,0,0,0,0,0,0,2.8849,2.8824,2.872,2.8712,2.875,2.8656,2.8639,2.862,2.852,2.8502,2.8548,2.854,2.8418,2.8407,2.8397,2.8414,2.834,2.8336,2.8334,2.8332,2.8335,2.8337,0,0,0,0,0,0,2.883,2.8818,2.8716,2.8701,2.869,2.8656,2.8641,2.8614,2.852,2.8568,2.8559,2.8546,2.8432,2.8411,2.8402,2.8362,2.8343,2.834,2.8338,2.8336,2.8334,2.8336,0,0,0,0,0,0,2.8823,2.8813,2.8702,2.8694,2.8685,2.8587,2.863,2.8546,2.851,2.8574,2.8505,2.8502,2.8437,2.8427,2.8407,2.8371,2.8364,2.8343,2.8341,2.8339,2.8338,0,0,0,0,0,0,0,2.8818,2.8905,2.8769,2.8689,2.868,2.8637,2.8634,2.8632,2.851,2.8508,2.8505,2.8503,2.8362,2.8358,2.8355,2.8377,0,0,2.8344,2.8342,0,0,0,0,0,0,0,0,2.8907,2.8906,2.8769,2.8767,2.8766,2.8636,2.8634,2.8632,2.8509,2.8508,2.8506,2.8504,2.8361,2.8358,2.8355,0,0,0,0,0,0,0,0,0,0,0,0,0,0,0,2.8769,2.8767,0,2.8636,2.8634,2.8633,2.8509,2.8508,2.8506,2.8505,2.836,2.8358,2.8355,0,0,0,0,0,0,0,0,0,0,0,0,0,0,0,0,0,0,0,0,0,0,0,0,0,0,0,0,0,0,0,0,0,0,0,0,0,0,0,0,0,0,0,0,0,0,0,0,0,0,0,0,0,0,0,0,0,0,0,0,0,0,0,0,0,0,0,0,0]}],[{"header":{"parameterUnit":"kt","parameterCategory":2,"dx":1,"dy":1,"la1":30.253999710083008,"la2":30.299108505249023,"lo1":-89.0895004272461,"lo2":-89.04439544677734,"nx":28,"ny":28,"refTime":"2022-10-05T21:00:00:Z","depth":0,"parameterNumber":2,"parameterNumberName":"V-component_of_WINDS"},"data":[-2.065,-2.0849,-2.0978,-2.1265,-2.143,-2.165,-2.177,-2.194,-2.2109,-2.2389,-2.2574,-2.2727,-2.295,-2.3204,-2.3414,-2.3478,-2.3559,-2.3535,-2.3615,-2.36,-2.3607,-2.3613,-2.3574,-2.355,-2.355,-2.3614,-2.3614,-2.3615,-2.063,-2.0794,-2.0982,-2.1253,-2.1418,-2.1518,-2.1743,-2.1875,-2.207,-2.2279,-2.2468,-2.2727,-2.2948,-2.3185,-2.3421,-2.3521,-2.3584,-2.3576,-2.3572,-2.3607,-2.3594,-2.3551,-2.3522,-2.3522,-2.3522,-2.3522,-2.3522,-2.3522,-2.0628,-2.0742,-2.098,-2.1188,-2.136,-2.1541,-2.1674,-2.1858,-2.2047,-2.2306,-2.2426,-2.265,-2.2887,-2.3237,-2.3387,-2.3569,-2.3602,-2.3635,-2.3645,-2.365,-2.3639,-2.3533,-2.3615,-2.3615,-2.3616,-2.3616,-2.3617,0,-2.0668,-2.0768,-2.0958,-2.1186,-2.1345,-2.1535,-2.1733,-2.1818,-2.2078,-2.2223,-2.2446,-2.2597,-2.2895,-2.3122,-2.3373,-2.3525,-2.3648,-2.3674,-2.3699,-2.3645,-2.3564,-2.3613,-2.3588,-2.3672,-2.3673,-2.3673,-2.3674,-2.3674,-2.0677,-2.0794,-2.1106,-2.1223,-2.1363,-2.1547,-2.1684,-2.1905,-2.2041,-2.2319,-2.241,-2.2638,-2.2833,-2.317,-2.3388,-2.3613,-2.3675,-2.3693,-2.371,-2.3653,-2.368,-2.3671,-2.3686,-2.3685,-2.3684,-2.3683,-2.3682,0,-2.0671,-2.0882,-2.1105,-2.1405,-2.1484,-2.1596,-2.1855,-2.1979,-2.2145,-2.234,-2.2398,-2.266,-2.2876,-2.3093,-2.3384,-2.3491,-2.3685,-2.3739,-2.3606,-2.3629,-2.3669,-2.3663,-2.3756,-2.3782,-2.3806,-2.3805,-2.3805,0,-2.0764,-2.0908,-2.1216,-2.1334,-2.1504,-2.1722,-2.1884,-2.2043,-2.225,-2.2405,-2.2578,-2.272,-2.2976,-2.3151,-2.3309,-2.3506,-2.356,-2.3655,-2.3696,-2.3641,-2.3629,-2.372,-2.3721,-2.378,-2.3779,-2.3779,-2.3778,0,-2.0733,-2.1067,-2.126,-2.137,-2.1705,-2.1792,-2.1935,-2.2168,-2.2301,-2.2509,-2.2599,-2.2824,-2.2949,-2.3123,-2.3323,-2.3327,-2.3569,-2.3616,-2.3666,-2.3661,-2.3709,-2.3704,-2.3731,-2.3777,-2.3777,-2.3777,-2.3777,0,-2.0841,-2.1044,-2.129,-2.1574,-2.1653,-2.178,-2.2018,-2.2177,-2.241,-2.2518,-2.2683,-2.2825,-2.3012,-2.3044,-2.3308,-2.3256,-2.3369,-2.3477,-2.3485,-2.3517,-2.3546,-2.3535,-2.3536,-2.3546,-2.3544,-2.3542,-2.3541,0,-2.075,-2.1055,-2.1244,-2.1474,-2.1646,-2.1829,-2.1976,-2.2176,-2.2332,-2.2502,-2.2676,-2.2869,-2.2938,-2.3029,-2.313,-2.3318,-2.3385,-2.3315,-2.3563,-2.3569,-2.3497,-2.35,-2.3447,-2.3511,-2.3519,-2.3521,-2.3523,0,-2.0706,-2.111,-2.1137,-2.1274,-2.1572,-2.1717,-2.1883,-2.2122,-2.2224,-2.243,-2.2578,-2.2853,-2.2918,-2.3065,-2.3205,-2.3299,-2.3346,-2.3356,-2.3365,-2.3349,-2.3525,-2.3474,-2.3484,-2.342,-2.3423,-2.3425,-2.3505,0,-2.0826,-2.1005,-2.1088,-2.1379,-2.1525,-2.168,-2.1909,-2.2032,-2.2152,-2.2313,-2.2533,-2.2755,-2.2999,-2.3066,-2.3184,-2.3329,-2.334,-2.3406,-2.3454,-2.3453,-2.3485,-2.3498,-2.3387,-2.339,-2.3392,-2.3394,0,0,-2.0687,-2.0948,-2.1151,-2.132,-2.1455,-2.1643,-2.1789,-2.1944,-2.2249,-2.234,-2.2368,-2.2786,-2.2965,-2.3209,-2.3227,-2.3324,-2.3373,-2.3363,-2.3451,-2.3456,-2.3462,-2.3492,-2.3502,-2.3398,-2.3399,-2.34,-2.34,0,-2.0778,-2.0952,-2.1093,-2.1261,-2.1517,-2.1681,-2.1714,-2.2002,-2.2112,-2.2328,-2.2482,-2.2642,-2.2968,-2.314,-2.3269,-2.3339,-2.3448,-2.3396,-2.3358,-2.3466,-2.3468,-2.3471,-2.35,-2.3507,-2.3406,-2.3406,-2.3406,0,-2.0777,-2.0988,-2.1079,-2.1394,-2.1563,-2.1735,-2.1841,-2.2016,-2.2147,-2.2346,-2.2557,-2.2711,-2.2958,-2.3156,-2.3254,-2.3283,-2.3504,-2.3474,-2.3466,-2.3482,-2.3599,-2.36,-2.3602,-2.3576,-2.3576,-2.3575,0,0,-2.0825,-2.0993,-2.1288,-2.143,-2.1526,-2.1771,-2.1885,-2.2016,-2.2233,-2.2318,-2.2519,-2.2726,-2.292,-2.3042,-2.3235,-2.342,-2.3491,-2.3485,-2.3477,-2.347,-2.3481,-2.3595,-2.3598,-2.3574,-2.3574,-2.3574,0,0,-2.0849,-2.1197,-2.1278,-2.1472,-2.1671,-2.1973,-2.2053,-2.2161,-2.2358,-2.2366,-2.2597,-2.2663,-2.2852,-2.2998,-2.2953,-2.3257,-2.33,-2.3315,-2.3155,-2.3148,-2.3141,-2.3103,-2.3094,0,0,0,0,0,-2.106,-2.1154,-2.1224,-2.1291,-2.1689,-2.1933,-2.1986,-2.2178,-2.2205,-2.2264,-2.2449,-2.2558,-2.3022,-2.2988,-2.3051,-2.31,-2.3556,-2.356,-2.3563,-2.3401,-2.3391,-2.3383,0,0,0,0,0,0,-2.1088,-2.1169,-2.1223,-2.1524,-2.1616,-2.1932,-2.202,-2.2075,-2.2204,-2.2221,-2.2518,-2.2567,-2.2737,-2.2968,-2.3023,-2.3065,-2.3076,-2.3558,-2.356,-2.3563,-2.3398,-2.339,-2.3383,0,0,0,0,0,-2.1111,-2.1176,-2.1764,-2.1525,-2.1604,-2.1882,-2.2018,-2.2065,-2.2168,-2.2455,-2.2507,-2.2301,-2.2732,-2.2792,-2.3002,-2.3035,-2.304,-2.306,-2.3559,-2.3561,-2.3563,-2.3394,0,0,0,0,0,0,-2.1128,-2.1222,-2.1785,-2.1816,-2.1503,-2.1869,-2.1932,-2.2055,-2.2398,-2.245,-2.2249,-2.2258,-2.2731,-2.2777,-2.2822,-2.3014,-2.301,-2.303,-2.3043,-2.3561,-2.3563,-2.3564,0,0,0,0,0,0,-2.1189,-2.1247,-2.1801,-2.1763,-2.1792,-2.1855,-2.1912,-2.2118,-2.2399,-2.2173,-2.2192,-2.2249,-2.2664,-2.2767,-2.2803,-2.3117,-2.2988,-2.3007,-2.302,-2.3028,-2.3562,-2.3564,0,0,0,0,0,0,-2.1217,-2.1268,-2.1756,-2.1778,-2.1804,-2.2172,-2.2041,-2.2439,-2.2364,-2.2155,-2.2363,-2.2362,-2.2651,-2.2691,-2.2788,-2.3086,-2.3109,-2.2988,-2.3001,-2.3011,-2.3017,0,0,0,0,0,0,0,-2.124,-2.0854,-2.1597,-2.1791,-2.1813,-2.2107,-2.2116,-2.2125,-2.2364,-2.2363,-2.2363,-2.2363,-2.2879,-2.29,-2.2921,-2.3062,0,0,-2.2986,-2.2996,0,0,0,0,0,0,0,0,-2.0838,-2.085,-2.1598,-2.1604,-2.1611,-2.2109,-2.2116,-2.2123,-2.2364,-2.2363,-2.2363,-2.2363,-2.2885,-2.2902,-2.2919,0,0,0,0,0,0,0,0,0,0,0,0,0,0,0,-2.1599,-2.1604,0,-2.211,-2.2116,-2.2121,-2.2364,-2.2363,-2.2363,-2.2363,-2.2889,-2.2903,-2.2917,0,0,0,0,0,0,0,0,0,0,0,0,0,0,0,0,0,0,0,0,0,0,0,0,0,0,0,0,0,0,0,0,0,0,0,0,0,0,0,0,0,0,0,0,0,0,0,0,0,0,0,0,0,0,0,0,0,0,0,0,0,0,0,0,0,0,0,0,0]}]]]